This is the latest recevied weather packets stored in our database for station/object HB9DDE-10. If no packets are shown the sender has not sent any weather packets the latest 10 day(s).
| Time | Temp. | Humidity | Pressure | Rain* | Wind** | Luminosity | Snow |
|---|---|---|---|---|---|---|---|
| 1777711113 | 16.11° C | 66% | 1023.9 hPa | 0 mm | - | - | - |
| 1777710825 | 16.11° C | 67% | 1023.9 hPa | 0 mm | - | - | - |
| 1777710516 | 15.56° C | 68% | 1023.9 hPa | 0 mm | - | - | - |
| 1777710227 | 15° C | 68% | 1024 hPa | 0 mm | - | - | - |
| 1777709932 | 15° C | 68% | 1024 hPa | 0 mm | - | - | - |
| 1777709621 | 15° C | 69% | 1024 hPa | 0 mm | - | - | - |
| 1777709329 | 14.44° C | 69% | 1024 hPa | 0 mm | - | - | - |
| 1777709018 | 13.89° C | 69% | 1024.1 hPa | 0 mm | - | - | - |
| 1777708728 | 13.89° C | 70% | 1024 hPa | 0 mm | - | - | - |
| 1777708419 | 13.33° C | 71% | 1024 hPa | 0 mm | - | - | - |
| 1777708113 | 13.33° C | 73% | 1024.1 hPa | 0 mm | - | - | - |
| 1777707824 | 12.78° C | 74% | 1024.2 hPa | 0 mm | - | - | - |
| 1777707514 | 12.78° C | 74% | 1024.2 hPa | 0 mm | - | - | - |
| 1777707223 | 12.22° C | 74% | 1024.3 hPa | 0 mm | - | - | - |
| 1777706933 | 12.22° C | 74% | 1024.3 hPa | 0 mm | - | - | - |
| 1777706622 | 12.22° C | 75% | 1024.3 hPa | 0 mm | - | - | - |
| 1777706330 | 12.22° C | 75% | 1024.4 hPa | 0 mm | - | - | - |
| 1777706020 | 12.22° C | 76% | 1024.3 hPa | 0 mm | - | - | - |
| 1777705730 | 11.67° C | 76% | 1024.3 hPa | 0 mm | - | - | - |
| 1777705425 | 11.67° C | 77% | 1024.3 hPa | 0 mm | - | - | - |
| 1777705114 | 11.11° C | 78% | 1024.3 hPa | 0 mm | - | - | - |
| 1777704824 | 11.11° C | 79% | 1024.4 hPa | 0 mm | - | - | - |
| 1777704513 | 10.56° C | 80% | 1024.4 hPa | 0 mm | - | - | - |
| 1777704223 | 10.56° C | 81% | 1024.4 hPa | 0 mm | - | - | - |
| 1777702715 | 8.89° C | 86% | 1024.4 hPa | 0 mm | - | - | - |
* Rain latest hour (hover to see other rain measurements)
** Current wind speed in m/s (hover to see current wind gust speed)